Вернуться в каталог

HAWK-C

АктивенНаукаSSO
NORAD 43799·PAYLOAD·🇺🇸 United States

Запущен Dec 3, 2018 с Vandenberg Space Force Base

Loading…

Ближайшие Пролёты (ближайшие 24 часа)

TLE

СвежийSource: Space-Track

Эпоха: Sep 14, 2026, 14:32 UTC

1 43799U 18099AT  26257.60602723  .00006125  00000-0  21331-3 0  9994
2 43799  97.3792 310.0589 0038300 330.6146  29.2941 15.29336755427572

Отслеживайте HAWK-C в реальном времени с AllMySat

Download on the App Store